Tracking 22455 objects as of 8-Mar-2021
HD Live streaming from Space Station
objects crossing your sky now

THORAD AGENA D DEB

Track THORAD AGENA D DEB now!
10-day predictions


NORAD ID: 4895
Int'l Code: 1969-082HE
Perigee: 746.6 km
Apogee: 809.8 km
Inclination: 70.2 °
Period: 100.3 minutes
Semi major axis: 7149 km
RCS: 0.0073 m2 (small)
Launch date: September 30, 1969
Source: United States (US)
Launch site: AIR FORCE WESTERN TEST RANGE (AFWTR)

Note: This is SATELLITE DEBRIS
aabbcc
Your satellite tracking list
Your tracking list is empty




NASA's NSSDC Master Catalog

Two Line Element Set (TLE):
1 04895U 69082HE  21067.48747139  .00000200  00000-0  87164-4 0  9992
2 04895  70.1733 143.2091 0044188 166.0139 194.2224 14.36211253666066
Source of the keplerian elements: AFSPC